Погода в Эльтоне

Погода в Эльтоне : погода сейчас, прогноз погоды и архив. Всё, что Вы хотите узнать о погоде в Эльтоне!

Хотите узнать прогноз погоды в Эльтоне? Тогда Вам сюда: Погода в Эльтоне

Поиск расширенной информации на нашем сайте:

Другие новости

Новости СМИ2

Главная страница сайта

Новости сайта

02.10.2013

Напоминаем, что на нашем новом сайте вы можете получить высокодетализированные прогнозы погоды по пунктам России, СНГ и мира (включающие важные для авиации метеовеличины, такие как направление и скорость ветра, видимость, явления погоды, количество и форма облачности, нижняя и верхняя граница облачности), а также ознакомиться с разнообразными материалами по авиационной метеорологии и подборкой полезных ссылок на эту тему.

Сайт Метеоцентр.Азия посвящён разработке технологий оптимизации авиаметеорологического обслуживания, включая проектирование и перспективное создание нескольких автоматизированных авиаметеорологических систем:
- система выпуска высокодетальных прогностических карт явлений погоды для нижнего воздушного пространства по России и ближнему зарубежью;
- система верификации прогнозов TAF (выпускаемых синоптиками официальных АМСГ РФ и ближнего зарубежья) и AUTOTAF (выпускаемых сайтом Метеоцентр.Азия) - выявление ошибок, онлайн-сопоставление с фактической погодой METAR, автоматическое внесение коррективов в прогнозы при резком отклонении фактической погоды от прогноза, подсчёт оправдываемости прогнозов по элементам и в целом;
- система обработки, анализа и отображения авиаметеорологической информации для применения провайдерами метеорологической информации.

Рекомендуем: вакансии администратор салона подробности

Погода в Эльтоне - сегодня

Время (UTC), дата Ветер
(°,м/с) 
Видим.   Явления Облачность Т
(°С)
Тd
(°С)
f(%) Тe
(°С)
Pmin
(гПа)
dP
(гПа)
Po
(мм)
O2
(г/м3)
Тmin Tmax R s Состояние
почвы
09 26.04.17 260 (З) 20000 м    6/6 1000 м 
[Cu med, cong]
+15.4 -2.5 29 +15  1030.8  0.3  773  295           
12 26.04.17 260 (З) 20000 м    8/8 1000 м средняя 
[Cu med, cong|Ac trans]
+15.7 -2.7 28 +15  1030.6  0.1  772  295           
15 26.04.17 220 (ЮЗ) 4{10}  20000 м    3/0 средняя, верхняя 
[Ac trans|Ci fib]
+14 +0.2 39 +14  1030.5  -0.2  772  296    +16.4       
18 26.04.17 170 (Ю) 20000 м    ясно 
+7.7 +0.9 62 +6  1031.3  0.8  773  303           
21 26.04.17 170 (Ю) 20000 м    ясно 
+6.8 +1 66 +5  1032.1  0.7  773  304           
00 27.04.17 170 (Ю) 20000 м    ясно 
+5.6 -0.2 66 +4  1032.4  0.3  774  306           
03 27.04.17 180 (Ю) 20000 м    ясно 
+6.6 +0.1 63 +5  1033.7  1.4  775  305  +4        влажная 
06 27.04.17 180 (Ю) 20000 м    1/0 верхняя 
[Ci fib]
+14.6 -3.4 29 +14  1034.4  0.7  775  297           
09 27.04.17 160 (Ю) 9-13{13}  20000 м    3/0 верхняя 
[Ci fib]
+17.4 -3.4 24 +17  1033.3  -1.1  774  294           
12 27.04.17 170 (Ю) 9-13{15}  20000 м    6/0 верхняя 
[Ci]
+19.3 -4.6 19 +19  1031.6  -1.7  773  291           
15 27.04.17 160 (Ю) 6{13}  20000 м    3/0 верхняя 
[Ci fib]
+17.6 +0.1 31 +17  1030.7  -0.9  773  292    +19.4       
18 27.04.17 150 (ЮВ) 20000 м    1/0 верхняя 
[Ci fib]
+10.4 +2.1 56 +9  1031.2  0.5  773  300           
21 27.04.17 150 (ЮВ) 20000 м    ясно 
+7.4 +1.7 67 +6  1031.5  0.2  773  303           
00 28.04.17 110 (В) 20000 м    ясно 
+4.8 +0.5 74 +3  1030.8  -0.6  773  306           
03 28.04.17 100 (В) 20000 м    3/0 верхняя 
[Ci fib]
+6.1 +1.8 74 +4  1031.3  0.5  773  304  +3.7        сухая 
06 28.04.17 130 (ЮВ) 6-10{11}  20000 м    ясно 
+16.4 +1.4 36 +16  1031  -0.2  773  294           
09 28.04.17 130 (ЮВ) 6-10{13}  20000 м    ясно 
+20.3 +1.3 28 +20  1029.8  -1.2  772  289           
12 28.04.17 130 (ЮВ) 7-12{12}  20000 м    ясно 
+22.2 -3.2 18 +22  1027.7  -2  770  287           
15 28.04.17 120 (ЮВ) 5{13}  20000 м    ясно 
+20.4 -2.2 22 +20  1026.6  -1.1  769  289    +22.5       
18 28.04.17 120 (ЮВ) 20000 м    ясно 
+12.6 +2.9 52 +12  1027.9  1.2  770  296           
21 28.04.17 100 (В) 20000 м    ясно 
+8.3 -0.5 54 +7  1027.5  -0.4  770  301           
00 29.04.17 100 (В) 20000 м    ясно 
+7.6 -1.9 51 +6  1026.5  -1  769  302           
03 29.04.17 090 (В) 20000 м    8/0 верхняя 
[Ci]
+8.6 -0.6 52 +7  1026.4  -0.2  769  301  +7        сухая 
06 29.04.17 110 (В) 6-10{10}  20000 м    9/0 средняя, верхняя 
[Ac trans|Ci]
+17.2 +1.3 34 +17  1026.2  0.1  769  291           
09 29.04.17 140 (ЮВ) 10-14{16}  20000 м    9/0 верхняя 
[Ci]
+22.4 -2.2 19 +22  1025.2  -1  768  286           
Время (UTC), дата Ветер
(°,м/с) 
Видим.   Явления Облачность Т
(°С)
Тd
(°С)
f(%) Тe
(°С)
Pmin
(гПа)
dP
(гПа)
Po
(мм)
O2
(г/м3)
Тmin Tmax R s Состояние
почвы

Для получения пояснительной информации подведите курсор к названию столбца.

ПОГОДА в Эльтоне - архив

Всё, что Вы хотите узнать о погоде в Эльтоне - удобно и подробно!

Выберите нужную дату (начиная с 1 января 2015* года) и нажмите кнопку "Найти".
Будут отображены архивные сводки погоды по пункту Эльтон, начиная с указанной даты.


Отображать данные в формате CSV (для использования в таблицах Excel)


Внимание! Наш архив погоды предназначен исключительно для личного некоммерческого использования в познавательных целях. Если Вам необходимы официальные справки о состоянии погоды (для производственных, юридических, коммерческих и т.п. целей), обращайтесь в органы Росгидромета.

*Примечание: данная дата относится к архиву по метеостанциям СССР (Россия, СНГ, Балтия).
Архив по метеостанциям Зарубежной Европы и Азии (кроме Китая) хранится 10 дней, по другим регионам земного шара (Китай, Африка, Америка, Австралия, Океания) - 1 день.

Эльтон - район местоположения метеостанции


Название, широта, долгота, высота метеостанции:
Эльтон 49.1°ш. 46.9°д. 6 м над ур. моря [Российская Федерация]

Дополнительная информация

В oтличие oт бoльшинства пoгoдных сайтoв мы публикуем пoдрoбную метеoинфoрмацию в детальнoм прoфессиoнальнoм фoрмате.

Характеристики температуры и влажнoсти вoздуха измеряются на высoте 2 м в тени вдали oт зданий и деревьев.
Скoрoсть ветра измеряется на высoте 10 м (на урoвне рoста челoвека скoрoсть ветра ниже в 1.5-2 раза). Если метеoстанция нахoдится в гoрoде или в лесу, тo скoрoсть ветра занижена на 2-4 м/с пo сравнению с oткрытым местoм. Скoрoсть ветра над акватoриями крупных рек и oзёр, а также на вершинах хoлмoв на 2-5 м/с выше, чем в oбычных услoвиях.
Атмoсфернoе давление в разных тoчках местнoсти мoжет значительнo oтличаться oт давления на метеoстанции, в зависимoсти oт услoвий рельефа (при пoдъёме на 10 м давление пoнижается примернo на 1 мм рт.ст.).